Location: Caltech
(34.1382°N, 118.1253°W)
Time: 18:49:04
(UTC-08:00)

Cosmos 1606 - Visible Passes

Search period start: 03 March 2015 00:00
Search period end: 13 March 2015 01:00
Orbit: 516 x 541 km, 82.5° (Epoch: 02 March)

Date Brightness Start Highest point End Pass type
(mag) Time Alt. Az. Time Alt. Az. Time Alt. Az.
03 Mar 3.7 04:51:17 31° NW 04:51:17 31° NW 04:53:51 10° N visible
04 Mar 4.3 04:41:11 23° NNW 04:41:11 23° NNW 04:42:57 10° N visible
05 Mar 4.8 04:30:56 17° N 04:30:56 17° N 04:32:01 10° N visible
06 Mar 5.2 04:20:34 13° N 04:20:34 13° N 04:21:04 10° N visible
07 Mar 5.5 04:10:05 10° N 04:10:05 10° N 04:10:06 10° N visible
